Weather WX

World > North America > United States > Mississippi

Kerin, Mississippi Regional Weather

Lat: 33.29N, Lon: 90.23W
Wx Zone: MSZ036
Warning FLW WEATHER ALERT - (More Info. Click Here) Warning
Feedback

Kerin, MS Regional Weather

Expires:201906171900;;638802
ASUS44 KJAN 171810
RWRMS 

MISSISSIPPI HOURLY WEATHER ROUNDUP
NATIONAL WEATHER SERVICE JACKSON MS
100 PM CDT MON JUN 17 2019

NOTE: "FAIR: INDICATES FEW OR NO CLOUDS BELOW 12,000 FEET WITH NO
SIGNIFICANT WEATHER AND/OR OBSTRUCTIONS TO VISIBILITY.


MSZ001>002-007>008-010>013-018>021-025>028-034>036-171900-
NORTHWEST MISSISSIPPI
  
CITY           SKY/WX    TMP DP  RH WIND       PRES   REMARKS
BATESVILLE     FAIR      84  72  65 SW8       29.96F                  
CLARKSDALE     SUNNY     86  70  58 S13       29.96S HX  90           
CLEVELAND      FAIR      82  72  70 S9        29.96F                  
GREENWOOD      FAIR      84  73  69 S8        29.97F HX  90           
6HR MIN TEMP:  71; 6HR MAX TEMP:  85; 6HR PCP: TRACE;                

GREENVILLE     FAIR      80  70  71 SE8       29.96F                  
6HR MIN TEMP:  70; 6HR MAX TEMP:  81;                                

OLIVE BRANCH   CLOUDY    82  68  61 SW12G17   29.97S                  
OXFORD         FAIR      82  70  65 VRB7G14   29.99S                  
TUNICA           N/A     82  68  61 S10       29.96S                  
WINONA         FAIR      86  70  58 S8        29.97F HX  90           
$$


SKY/WX - Weather  TMP - Temperature  DP - Dew Point  RH - Relative Humidity
WIND - Wind Direction/Speed PRES - Barometric Pressure VSB - Visibility
WCI - Wind Chill Index E13G22 Wind - East Wind 13 mph/Gusts of 22 mph